Location: Central Coast NSW, Australia
(33.2407°S, 151.4316°E)
Time: 02:34:20
(UTC+11:00)

Envisat - Visible Passes

Search period start: 17 October 2019 00:00
Search period end: 27 October 2019 00:00
Orbit: 764 x 766 km, 98.1° (Epoch: 16 October)

Date Brightness Start Highest point End Pass type
(mag) Time Alt. Az. Time Alt. Az. Time Alt. Az.
17 Oct 3.3 19:59:21 10° S 20:04:28 71° WSW 20:09:32 10° NNW visible
18 Oct 5.9 21:03:04 10° SSW 21:06:17 17° WSW 21:09:28 10° WNW visible
19 Oct 4.6 20:25:07 10° S 20:29:51 38° WSW 20:34:32 10° NW visible
20 Oct 3.0 19:48:03 10° SSE 19:53:14 89° E 19:58:20 10° NNW visible
21 Oct 5.6 20:51:19 10° SSW 20:55:08 21° WSW 20:58:57 10° WNW visible
22 Oct 4.1 20:13:42 10° S 20:18:39 49° WSW 20:23:33 10° NNW visible
23 Oct 3.0 19:36:50 10° SSE 19:41:58 69° E 19:47:02 10° N visible
23 Oct 6.3 21:18:31 10° SW 21:20:19 12° WSW 21:22:06 10° W visible
24 Oct 5.2 20:39:42 10° SSW 20:43:58 27° WSW 20:48:13 10° NW visible
25 Oct 3.5 20:02:20 10° S 20:07:26 64° WSW 20:12:27 10° NNW visible
26 Oct 6.8 05:38:02 10° ESE 05:39:07 11° ESE 05:40:12 10° SE visible
26 Oct 6.1 21:06:18 10° SSW 21:09:12 15° WSW 21:12:06 10° W visible
